Skip Page Navigation
NASA JPL Caltech
NASA Logo - Jet Propulsion Laboratory + View the NASA Portal
+ Center for Near-Earth Object Studies
JPL Home Earth Solar System Stars & Galaxies Technology
JPL Solar System Dynamics
BODIES ORBITS EPHEMERIDES TOOLS PHYSICAL DATA DISCOVERY FAQ SITE MAP
IMPORTANT: The SSD Announcement email list is now available. Major changes are coming in the near future, including possible hostname and/or URL changes. To be notified of such changes, subscribe to this email list.

Please visit this page for more details.


JPL Small-Body Database Browser
Search: [ help ]  
49137 (1998 SC35)
Classification: Main-belt Asteroid          SPK-ID: 2049137
Ephemeris | Orbit Diagram | Orbital Elements | Mission Design | Physical Parameters | Discovery Circumstances ]

[ show orbit diagram ]
Orbital Elements at Epoch 2458600.5 (2019-Apr-27.0) TDB
Reference: JPL 14 (heliocentric ecliptic J2000)
 Element Value Uncertainty (1-sigma)   Units 
e .2710147004463956 9.8045e-08  
a 2.569574533344405 2.2702e-08 au
q 1.873182060915384 2.5758e-07 au
i 29.05309267420387 1.039e-05 deg
node 16.66194570179194 1.9109e-05 deg
peri 269.9726523136704 2.6924e-05 deg
M 57.3248450896095 2.6758e-05 deg
tp 2458360.930986247067
(2018-Aug-30.43098625)
0.00010993 TDB
period 1504.493292851279
4.12
1.9939e-05
5.459e-08
d
yr
n .2392832202779295 3.1711e-09 deg/d
Q 3.265967005773426 2.8855e-08 au
  Orbit Determination Parameters
   # obs. used (total)      417  
   data-arc span      9727 days (26.63 yr)  
   first obs. used      1993-04-16  
   last obs. used      2019-12-03  
   planetary ephem.      DE431  
   SB-pert. ephem.      SB431-N16  
   condition code      0  
   norm. resid. RMS      .64082  
   source      ORB  
   producer      Otto Matic  
   solution date      2019-Dec-14 04:17:30  

Additional Information
 Earth MOID = 1.09427 au 
 Jupiter MOID = 2.43365 au 
 T_jup = 3.208 
[ show covariance matrix ]

Ephemeris | Orbit Diagram | Orbital Elements | Mission Design | Physical Parameters | Discovery Circumstances ]

Physical Parameter Table
Parameter Symbol Value Units Sigma Reference Notes
absolute magnitude H 15.0   n/a MPO400479  
diameter diameter 5.720 km 0.034 urn:nasa:pds:neowise_diameters_albedos::2.0[mainbelt] (http://adsabs.harvard.edu/abs/2011ApJ...741...68M)  
geometric albedo albedo 0.077   0.016 urn:nasa:pds:neowise_diameters_albedos::2.0[mainbelt] (http://adsabs.harvard.edu/abs/2011ApJ...741...68M)  

49137 (1998 SC35)          Discovered 1998-Sep-26 by LINEAR at Socorro
Reference: 20021120/Numbers.arcLast Updated: 2004-04-19

Alternate Designations
 1998 SC35 = 2001 EM14 
Ephemeris | Orbit Diagram | Orbital Elements | Mission Design | Physical Parameters | Discovery Circumstances ]
ABOUT SSD CREDITS/AWARDS PRIVACY/COPYRIGHT GLOSSARY LINKS
FirstGov 2020-Jan-18 17:42 UT
(server date/time)  
NASA Home Page
Site Manager:   Ryan S. Park
Webmaster  Alan B. Chamberlin